This is the latest recevied weather packets stored in our database for station/object F4CYQ-10. If no packets are shown the sender has not sent any weather packets the latest 10 day(s).
| Time | Temp. | Humidity | Pressure | Rain* | Wind** | Luminosity | Snow |
|---|---|---|---|---|---|---|---|
| 1777507128 | 20° C | 62% | 1013.5 hPa | - | - | - | - |
| 1777506228 | 21.11° C | 61% | 1013.2 hPa | - | - | - | - |
| 1777505888 | 18.89° C | 62% | 1013.1 hPa | - | - | - | - |
| 1777504987 | 18.89° C | 61% | 1012.5 hPa | - | - | - | - |
| 1777504085 | 18.89° C | 61% | 1012.5 hPa | - | - | - | - |
| 1777503184 | 20.56° C | 62% | 1012.1 hPa | - | - | - | - |
| 1777502770 | 20.56° C | 61% | 1012.1 hPa | - | - | - | - |
| 1777501869 | 20° C | 61% | 1012 hPa | - | - | - | - |
| 1777500968 | 20.56° C | 61% | 1011.9 hPa | - | - | - | - |
| 1777500260 | 22.22° C | 62% | 1012.1 hPa | - | - | - | - |
| 1777500067 | 22.22° C | 62% | 1012.1 hPa | - | - | - | - |
| 1777499765 | 20° C | 62% | 1012 hPa | - | - | - | - |
| 1777498864 | 20.56° C | 61% | 1012.1 hPa | - | - | - | - |
| 1777497962 | 20.56° C | 61% | 1012.1 hPa | - | - | - | - |
| 1777497061 | 19.44° C | 61% | 1012 hPa | - | - | - | - |
| 1777496793 | 20.56° C | 61% | 1011.9 hPa | - | - | - | - |
| 1777495892 | 20.56° C | 61% | 1012.1 hPa | - | - | - | - |
| 1777494990 | 20.56° C | 61% | 1011.8 hPa | - | - | - | - |
| 1777494089 | 21.67° C | 61% | 1011.8 hPa | - | - | - | - |
| 1777493913 | 21.11° C | 61% | 1012 hPa | - | - | - | - |
| 1777493012 | 21.11° C | 61% | 1012 hPa | - | - | - | - |
| 1777492111 | 20.56° C | 62% | 1012.2 hPa | - | - | - | - |
| 1777491210 | 21.11° C | 61% | 1012.3 hPa | - | - | - | - |
| 1777491035 | 21.11° C | 61% | 1012.4 hPa | - | - | - | - |
| 1777490133 | 21.67° C | 61% | 1012.2 hPa | - | - | - | - |
* Rain since midnight (hover to see other rain measurements)
** Current wind speed in m/s (hover to see current wind gust speed)